STARLINK-32538, 62170

Orbit data source: Space-Track

STARLINK-32538, 62170 is a payload satellite owned by SpaceX/Seattle (US) in LEO that was launched on Sat, 30 Nov 2024 UTC via an FALCON 9 launch vehicle from the Air Force Western Test Range (AFWTR). Payload-class satellites include a variety of spacecraft equipped with specific instruments for various scientific and technological missions. These include communications satellites like Starlink; space stations such as the ISS; scientific satellites like the Hubble; Earth observation satellites from companies like Planet Labs, Umbra, and HawkEye 360; GPS; miniature CubeSats for education and research; and military/defense satellites.

Loading next visibility...
Identifier
62170, 2024-225H
Orbit
LEO
Country
Flag of USUS
Related business
Manufacturer
SpaceX/Seattle
Mission
Operational Commercial Communications
Bus & Motor
STARLINK V2M, Unknown motor
Mass
730 kg wet, ~700 kg dry
Launch date (UTC)
2024-11-30 (1 year ago)
Launch vehicle
FALCON 9
Launch site
Air Force Western Test Range (AFWTR)
Object type
Payload
Rocket body
Debris
Shape & HBR
Box + 2 Pan, 17.7 m
Radar Cross Section
33.884 m², Large (>1 m²)

Expand to show TLE details & history
Last TLE update: 12 hours ago

TLE from 12 hours ago
0 STARLINK-32538
1 62170U 24225H   26062.76055484  .00010786  00000-0  91001-3 0  9992
2 62170  70.0029 179.5340 0003670 275.9325  84.1415 14.98342416 68980
Epoch: 2026-03-03T18:15Z
TLE epoch observation values (Epoch: 2026-03-03T18:15:11.938Z)
Latitude
-0.00007°
Longitude
104.19924°
Altitude
574.182 km
Speed
7.574 km/s
True Right ascension
11h 58m 08s
True Declination
0° 00' 00"
Sunlit
Object was in full shadow at epoch
Visualization orbit readout
Latitude
Unknown
Longitude
Unknown
Altitude
Unknown
Speed
Unknown
Apparent Right ascension
Unknown
Apparent Declination
Unknown
Sunlit
N/A
Visualization observer readout
Local Sidereal Time
10:02:06
Azimuth
Unknown
Elevation
Unknown
Doppler factor
Unknown
Orbital elements
Apogee altitude
572.515 km
Perigee altitude
567.415 km
Semi-major axis
6,948.102 km
Eccentricity
0.00037
Inclination
70.0029°
RAAN
179.534°
Arg. of periapsis
275.9325°
True anomaly
84.18334°
Mean anomaly
84.1415°
Eccentric anomaly
84.16242°
Mean motion
3.74752 °/min
Orbital period
96.06 mins
BSTAR
0.00091001
Loading maneuver chart data...
Computing Atmospheric mass density...
Loading historical data...
Loading historical data...
Loading historical data...
Loading historical data...
Loading historical data...
Loading historical data...
Loading historical data...

Documentation

Showing up to 5 results
|